GW0409 Weather Reports


Display with metric or nautical units.
time (UTC)temp
F
wind
direction
speed
MPH
gust
MPH
rain 1hr
in
rain 24hr
in
rain mn
in
humidity
%
barometer
mb
20260510004037 66 103 0.0 2.0 0.00 0.00 0.00 38 1011.2
20260510003019 67 228 2.0 4.0 0.00 0.00 0.00 37 1011.2
20260510002040 67 170 1.0 3.0 0.00 0.00 0.00 38 1011.3
20260510001021 66 151 1.0 4.0 0.00 0.00 0.00 40 1011.5
20260510000019 66 49 1.0 3.0 0.00 0.00 0.00 38 1011.7
20260509235017 66 63 0.0 2.0 0.00 0.00 0.00 40 1011.8
20260509234017 67 131 1.0 3.0 0.00 0.00 0.00 40 1011.9
20260509233017 66 238 2.0 7.0 0.00 0.00 0.00 37 1012.1
20260509232017 66 219 3.0 7.0 0.00 0.00 0.00 37 1012.2
20260509231018 66 208 2.0 4.0 0.00 0.00 0.00 36 1012.5
20260509230018 67 247 3.0 5.0 0.00 0.00 0.00 36 1012.7
20260509225018 67 197 2.0 3.0 0.00 0.00 0.00 37 1012.8
20260509224021 67 225 4.0 8.0 0.00 0.00 0.00 35 1012.8
20260509223018 67 245 3.0 8.0 0.00 0.00 0.00 35 1012.9
20260509222019 67 213 3.0 9.0 0.00 0.00 0.00 36 1013.0
20260509221019 67 242 2.0 5.0 0.00 0.00 0.00 37 1013.1
20260509220019 68 214 2.0 4.0 0.00 0.00 0.00 38 1013.3
20260509215016 67 227 2.0 6.0 0.00 0.00 0.00 38 1013.5
20260509214016 65 178 2.0 6.0 0.00 0.00 0.00 40 1013.8
20260509213021 64 240 4.0 9.0 0.00 0.00 0.00 39 1013.8
20260509212019 64 242 4.0 9.0 0.00 0.00 0.00 40 1013.8
20260509211037 64 246 3.0 6.0 0.00 0.00 0.00 42 1013.8
20260509210017 64 207 3.0 9.0 0.00 0.00 0.00 42 1013.8
20260509205017 65 222 3.0 7.0 0.00 0.00 0.00 41 1013.9
20260509204018 64 201 2.0 8.0 0.00 0.00 0.00 42 1014.1
20260509203022 63 207 2.0 6.0 0.00 0.00 0.00 43 1014.3
20260509202018 64 198 1.0 4.0 0.00 0.00 0.00 43 1014.2
20260509201018 64 222 3.0 5.0 0.00 0.00 0.00 43 1014.4
20260509200018 64 197 3.0 6.0 0.00 0.00 0.00 43 1014.4
20260509195018 63 212 3.0 7.0 0.00 0.00 0.00 44 1014.3
20260509194019 64 243 4.0 9.0 0.00 0.00 0.00 43 1014.4
20260509193018 66 179 2.0 7.0 0.00 0.00 0.00 41 1014.4
20260509192020 64 213 3.0 7.0 0.00 0.00 0.00 42 1014.5
20260509191021 64 234 5.0 9.0 0.00 0.00 0.00 43 1014.5
20260509190017 64 183 3.0 5.0 0.00 0.00 0.00 44 1014.6
20260509185036 63 187 2.0 5.0 0.00 0.00 0.00 45 1014.7
20260509184017 63 184 2.0 6.0 0.00 0.00 0.00 44 1014.7
20260509183019 62 162 2.0 5.0 0.00 0.00 0.00 46 1014.7
20260509182020 62 179 2.0 5.0 0.00 0.00 0.00 46 1014.8
20260509181019 62 137 2.0 6.0 0.00 0.00 0.00 47 1014.9
20260509180017 62 172 2.0 5.0 0.00 0.00 0.00 47 1014.9
20260509175038 61 119 2.0 5.0 0.00 0.00 0.00 49 1015.1
20260509174018 60 183 2.0 5.0 0.00 0.00 0.00 51 1015.3
20260509173039 59 197 2.0 4.0 0.00 0.00 0.00 54 1015.4
20260509172019 59 176 2.0 5.0 0.00 0.00 0.00 56 1015.5
20260509171018 59 217 2.0 4.0 0.00 0.00 0.00 57 1015.5
20260509170038 58 179 0.0 2.0 0.00 0.00 0.00 57 1015.6
20260509165018 58 236 1.0 3.0 0.00 0.00 0.00 57 1015.7
20260509164019 58 253 1.0 3.0 0.00 0.00 0.00 57 1015.8
20260509163039 56 343 1.0 3.0 0.00 0.00 0.00 60 1015.9
20260509162018 55 147 2.0 3.0 0.00 0.00 0.00 63 1016.0
20260509161039 55 187 1.0 3.0 0.00 0.00 0.00 63 1016.0
20260509160017 56 134 1.0 3.0 0.00 0.00 0.00 62 1016.0
20260509155016 56 219 0.0 2.0 0.00 0.00 0.00 64 1016.1
20260509154019 55 321 0.0 3.0 0.00 0.00 0.00 63 1016.1
20260509153041 53 353 0.0 2.0 0.00 0.00 0.00 65 1016.2
20260509152018 51 300 1.0 3.0 0.00 0.00 0.00 70 1016.3
20260509151017 50 330 2.0 3.0 0.00 0.00 0.00 72 1016.2
20260509150038 50 282 0.0 1.0 0.00 0.00 0.00 76 1016.2
20260509145018 50 335 2.0 3.0 0.00 0.00 0.00 71 1016.1
20260509144018 50 343 1.0 3.0 0.00 0.00 0.00 73 1016.1
20260509143018 51 329 1.0 2.0 0.00 0.00 0.00 72 1016.1
20260509142019 51 336 2.0 3.0 0.00 0.00 0.00 68 1015.9
20260509141018 51 337 3.0 4.0 0.00 0.00 0.00 69 1015.9
20260509140018 51 335 2.0 4.0 0.00 0.00 0.00 69 1015.9
20260509135036 50 340 2.0 4.0 0.00 0.00 0.00 69 1015.8
20260509134018 50 345 2.0 3.0 0.00 0.00 0.00 70 1015.8
20260509133019 50 345 2.0 2.0 0.00 0.00 0.00 70 1015.7
20260509132039 50 341 2.0 3.0 0.00 0.00 0.00 70 1015.6
20260509131020 50 336 1.0 3.0 0.00 0.00 0.00 70 1015.6
20260509130016 50 345 3.0 4.0 0.00 0.00 0.00 71 1015.5
20260509125017 50 343 2.0 3.0 0.00 0.00 0.00 70 1015.5
20260509124020 50 339 2.0 3.0 0.00 0.00 0.00 70 1015.5
20260509123040 50 339 2.0 3.0 0.00 0.00 0.00 70 1015.4
20260509122017 50 339 2.0 3.0 0.00 0.00 0.00 70 1015.3
20260509121018 50 330 2.0 3.0 0.00 0.00 0.00 71 1015.4
20260509120019 50 348 1.0 2.0 0.00 0.00 0.00 71 1015.4
20260509115017 50 349 2.0 2.0 0.00 0.00 0.00 70 1015.4
20260509114018 50 334 2.0 2.0 0.00 0.00 0.00 70 1015.4
20260509113018 50 339 1.0 2.0 0.00 0.00 0.00 71 1015.3
20260509112018 50 349 2.0 3.0 0.00 0.00 0.00 70 1015.2
20260509111018 50 342 2.0 3.0 0.00 0.00 0.00 69 1015.2
20260509110018 50 339 3.0 4.0 0.00 0.00 0.00 69 1015.2
20260509105015 50 339 2.0 3.0 0.00 0.00 0.00 69 1015.1
20260509104019 50 332 2.0 3.0 0.00 0.00 0.00 68 1015.0
20260509103021 50 341 2.0 3.0 0.00 0.00 0.00 68 1014.9
20260509102017 50 339 2.0 4.0 0.00 0.00 0.00 69 1014.9
20260509101019 50 344 2.0 2.0 0.00 0.00 0.00 68 1014.8
20260509100018 50 342 2.0 2.0 0.00 0.00 0.00 67 1014.8
20260509095037 51 339 2.0 3.0 0.00 0.00 0.00 67 1014.8
20260509094020 51 347 2.0 2.0 0.00 0.00 0.00 65 1014.7
20260509093020 52 334 1.0 2.0 0.00 0.00 0.00 64 1014.5
20260509092017 52 321 1.0 3.0 0.00 0.00 0.00 63 1014.4
20260509091017 52 328 2.0 3.0 0.00 0.00 0.00 62 1014.3
20260509090017 52 329 2.0 5.0 0.00 0.00 0.00 62 1014.2
20260509085019 52 339 3.0 4.0 0.00 0.00 0.00 62 1014.2
20260509084018 52 342 3.0 6.0 0.00 0.00 0.00 61 1014.2
20260509083019 52 337 2.0 4.0 0.00 0.00 0.00 61 1014.2
20260509082018 52 337 2.0 4.0 0.00 0.00 0.00 59 1014.1
20260509081019 52 327 2.0 3.0 0.00 0.00 0.00 59 1014.0
20260509080019 52 343 2.0 3.0 0.00 0.00 0.00 59 1014.0
20260509075017 52 313 1.0 3.0 0.00 0.00 0.00 58 1013.9
20260509074019 52 293 1.0 2.0 0.00 0.00 0.00 57 1013.9
20260509073039 52 330 2.0 2.0 0.00 0.00 0.00 56 1013.8
20260509072019 52 326 1.0 2.0 0.00 0.00 0.00 57 1013.8
20260509071019 52 338 2.0 3.0 0.00 0.00 0.00 56 1013.7
20260509070016 53 339 2.0 3.0 0.00 0.00 0.00 55 1013.6
20260509065057 53 331 2.0 3.0 0.00 0.00 0.00 52 1013.5
20260509064020 54 286 0.0 2.0 0.00 0.00 0.00 51 1013.4
20260509063017 54 262 1.0 4.0 0.00 0.00 0.00 49 1013.3
20260509062039 54 272 0.0 3.0 0.00 0.00 0.00 51 1013.2
20260509061017 55 0.0 0.0 0.00 0.00 0.00 51 1013.0
20260509060017 55 0.0 0.0 0.00 0.00 0.00 51 1012.9
20260509055020 55 0.0 0.0 0.00 0.00 0.00 51 1012.8
20260509054018 55 0.0 0.0 0.00 0.00 0.00 51 1012.7
20260509053017 56 0.0 0.0 0.00 0.00 0.00 50 1012.7
20260509052018 56 0.0 0.0 0.00 0.00 0.00 50 1012.7
20260509051018 57 0.0 0.0 0.00 0.00 0.00 48 1012.5
20260509050057 57 305 1.0 3.0 0.00 0.00 0.00 47 1012.5
20260509045019 57 0.0 0.0 0.00 0.00 0.00 48 1012.4
20260509044018 58 339 0.0 2.0 0.00 0.00 0.00 46 1012.3
20260509043020 58 338 2.0 5.0 0.00 0.00 0.00 45 1012.2
20260509042016 58 342 1.0 3.0 0.00 0.00 0.00 45 1012.0
20260509041018 58 336 2.0 3.0 0.00 0.00 0.00 45 1011.9
20260509040020 58 339 2.0 3.0 0.00 0.00 0.00 46 1011.8
20260509035017 59 340 2.0 3.0 0.00 0.00 0.00 44 1011.6
20260509034017 60 343 1.0 2.0 0.00 0.00 0.00 44 1011.5
20260509033017 60 344 1.0 4.0 0.00 0.00 0.00 42 1011.4
20260509032017 61 347 1.0 3.0 0.00 0.00 0.00 42 1011.4
20260509031020 61 0.0 0.0 0.00 0.00 0.00 41 1011.2
20260509030017 61 326 1.0 4.0 0.00 0.00 0.00 39 1011.1
20260509025017 62 317 1.0 4.0 0.00 0.00 0.00 39 1011.0
20260509024018 62 291 1.0 4.0 0.00 0.00 0.00 39 1010.9
20260509023038 62 350 2.0 5.0 0.00 0.00 0.00 38 1010.9
20260509022018 63 318 2.0 6.0 0.00 0.00 0.00 38 1010.8
20260509021018 63 353 2.0 7.0 0.00 0.00 0.00 40 1010.7
20260509020019 63 325 1.0 4.0 0.00 0.00 0.00 41 1010.6
20260509015019 64 305 2.0 6.0 0.00 0.00 0.00 41 1010.5
20260509014019 64 269 2.0 6.0 0.00 0.00 0.00 41 1010.4
20260509013016 65 251 1.0 4.0 0.00 0.00 0.00 40 1010.2
20260509012038 65 220 2.0 5.0 0.00 0.00 0.00 39 1010.2
20260509011019 65 241 1.0 5.0 0.00 0.00 0.00 39 1010.1
20260509010020 65 283 1.0 5.0 0.00 0.00 0.00 38 1010.1
20260509005037 65 282 2.0 6.0 0.00 0.00 0.00 39 1010.0